ARSAT 2

Last updated on Thu Oct 30 2025 00:02:50 GMT+0000 (Coordinated Universal Time)

1 40941U 15054B 25302.45680953 -.00000215 00000+0 00000+0 0 9992 2 40941 0.0407 71.4026 0002015 130.0522 280.0506 1.00270547 36996
UTC large
Height (km)
Speed (km/s)
/
Latitude / Longitude
Inclination (degrees)
Orbital Period (minutes)
Azimuth
Elevation
Range (km)
Doppler Factor

Next 0 passes for location: London (51.5072 / 0.1276)

Sorry there are no passes over London.